GSAT0215 (GALILEO 19) (43055 NORAD) Tracking and Keplerian Element Data

This shows tracking and keplerian element data for the satellite.

Feedback or suggestion? Click here.




ElementValue
Catalog43055
NameGSAT0215 (GALILEO 19)
Epoch Orbit3786
Epoch Day12.10294566
Epoch Year2024
RAAN245.9256
Inclination55.417
Eccentricity0.0001601
Argument of Perigee348.2426
Mean Anonmoly11.8546
Mean Motion1.70473924
Decay Rate7E-07
L11 43055U 17079A 24012.10294566 .00000070 00000+0 00000+0 0 9998
L22 43055 55.4170 245.9256 0001601 348.2426 11.8546 1.70473924 37867



Live tracking and technical data element details for GSAT0215 (GALILEO 19) (NORAD 43055). GSAT0215 (GALILEO 19) can be tracked NOW for your location showing map with azimuth and elevation plus other details from your city location.







IsCatalogInMostPopularTable: catalog: 43055, numindb: 861
Update: records affected: 1



GetName: 43055 GSAT0215 (GALILEO 19)

Hit Count: updated at: Fri, 19 Apr 2024 11:20:04 GMT